FICHTELBE Weather Reports


Display with metric or nautical units.
time (UTC)temp
F
wind
direction
speed
MPH
gust
MPH
rain 1hr
in
rain 24hr
in
rain mn
in
humidity
%
barometer
mb
20260831171839 57 260 23.0 33.0 0.00 0.00 0.00 76
20260831161939 57 260 20.0 28.0 0.00 0.00 0.00 76
20260831151640 59 250 22.0 30.0 0.00 0.00 0.00 67
20260831141738 61 260 21.0 29.0 0.00 0.00 0.00 67
20260831131738 59 270 25.0 35.0 0.00 0.00 0.00 72
20260831121639 59 270 25.0 41.0 0.00 0.00 0.00 77
20260831111738 57 270 32.0 43.0 0.00 0.00 0.00 82
20260831101938 55 270 29.0 37.0 0.00 0.00 0.00 99
20260831091639 54 260 30.0 40.0 0.00 0.00 0.00 99
20260831081739 54 260 28.0 36.0 0.00 0.00 0.00 99
20260831071740 52 220 28.0 35.0 0.00 0.00 0.00 99
20260831061654 52 190 22.0 0.0 0.00 0.00 0.00 93
20260831051855 55 210 18.0 0.0 0.00 0.00 0.00 76
20260831041939 57 200 15.0 0.0 0.00 0.00 0.00 67
20260831031639 55 210 17.0 0.0 0.00 0.00 0.00 82
20260831021738 55 220 16.0 0.0 0.00 0.00 0.00 82
20260831011739 54 260 16.0 0.0 0.00 0.00 0.00 93
20260831001639 54 260 20.0 0.0 0.00 0.00 0.00 93
20260830231839 55 250 20.0 0.0 0.00 0.00 0.00 82
20260830221839 55 250 17.0 0.0 0.00 0.00 0.00 82
20260830211640 55 260 17.0 0.0 0.00 0.00 0.00 76
20260830201838 55 260 21.0 0.0 0.00 0.00 0.00 76
20260830191739 57 260 21.0 0.0 0.00 0.00 0.00 71
20260830181640 57 260 18.0 0.0 0.00 0.00 0.00 71